• en Suisse
  • Liste des pays
  • À 7 jours
  • Température de l'eau
  • Carte satellitaire
  • Carte météo
  • Widgets météo
  • user-avatar
    Se connecter

    Météo par heure à Holhol

    Ce jour, 22 Juin, Vendredi

    Heure Température Précipitation Vent Pression Humidité
    00:00 +37°C° 0 mm 3 m/s 710 mmHg 32%
    01:00 +36°C° 0 mm 2 m/s 710 mmHg 32%
    02:00 +36°C° 0 mm 2 m/s 710 mmHg 33%
    03:00 +35°C° 0 mm 3 m/s 710 mmHg 34%
    04:00 +35°C° 0 mm 3 m/s 710 mmHg 33%
    05:00 +35°C° 0 mm 3 m/s 710 mmHg 33%
    06:00 +34°C° 0 mm 4 m/s 710 mmHg 32%
    07:00 +36°C° 0 mm 5 m/s 710 mmHg 28%
    08:00 +39°C° 0 mm 6 m/s 711 mmHg 24%
    09:00 +41°C° 0 mm 7 m/s 711 mmHg 19%
    10:00 +43°C° 0 mm 7 m/s 711 mmHg 17%
    11:00 +44°C° 0 mm 6 m/s 711 mmHg 16%
    12:00 +45°C° 0 mm 6 m/s 711 mmHg 14%
    13:00 +45°C° 0 mm 6 m/s 711 mmHg 13%
    14:00 +46°C° 0 mm 5 m/s 710 mmHg 13%
    15:00 +46°C° 0 mm 5 m/s 710 mmHg 12%
    16:00 +45°C° 0 mm 5 m/s 709 mmHg 13%
    17:00 +45°C° 0 mm 5 m/s 709 mmHg 15%
    18:00 +43°C° 0 mm 5 m/s 709 mmHg 16%
    19:00 +42°C° 0 mm 4 m/s 709 mmHg 19%
    20:00 +41°C° 0 mm 4 m/s 709 mmHg 22%
    21:00 +39°C° 0 mm 3 m/s 709 mmHg 26%
    22:00 +38°C° 0 mm 3 m/s 709 mmHg 27%
    23:00 +38°C° 0 mm 3 m/s 709 mmHg 29%

    Demain, 23 Juin, Samedi

    Heure Température Précipitation Vent Pression Humidité
    00:00 +37°C° 0 mm 3 m/s 710 mmHg 30%
    01:00 +37°C° 0 mm 3 m/s 709 mmHg 32%
    02:00 +36°C° 0 mm 3 m/s 709 mmHg 33%
    03:00 +36°C° 0 mm 2 m/s 709 mmHg 34%
    04:00 +36°C° 0 mm 3 m/s 709 mmHg 34%
    05:00 +36°C° 0 mm 3 m/s 709 mmHg 33%
    06:00 +36°C° 0 mm 3 m/s 710 mmHg 33%
    07:00 +37°C° 0 mm 4 m/s 710 mmHg 29%
    08:00 +39°C° 0 mm 5 m/s 710 mmHg 26%
    09:00 +40°C° 0 mm 6 m/s 711 mmHg 22%
    10:00 +41°C° 0 mm 5 m/s 711 mmHg 20%
    11:00 +42°C° 0 mm 5 m/s 711 mmHg 19%
    12:00 +43°C° 0 mm 5 m/s 710 mmHg 17%
    13:00 +43°C° 0 mm 4 m/s 710 mmHg 16%
    14:00 +44°C° 0 mm 4 m/s 709 mmHg 16%
    15:00 +44°C° 0 mm 4 m/s 709 mmHg 16%
    16:00 +43°C° 0 mm 4 m/s 708 mmHg 18%
    17:00 +42°C° 0 mm 4 m/s 708 mmHg 19%
    18:00 +42°C° 0 mm 4 m/s 708 mmHg 21%
    19:00 +40°C° 0 mm 3 m/s 708 mmHg 23%
    20:00 +39°C° 0 mm 3 m/s 708 mmHg 26%
    21:00 +38°C° 0 mm 3 m/s 709 mmHg 28%
    22:00 +38°C° 0 mm 3 m/s 709 mmHg 29%
    23:00 +37°C° 0 mm 3 m/s 709 mmHg 29%

    Après-demain, 24 Juin, Dimanche

    Heure Température Précipitation Vent Pression Humidité
    00:00 +37°C° 0 mm 3 m/s 709 mmHg 30%
    01:00 +37°C° 0 mm 2 m/s 708 mmHg 31%
    02:00 +36°C° 0 mm 2 m/s 708 mmHg 32%
    03:00 +36°C° 0 mm 2 m/s 708 mmHg 33%
    04:00 +35°C° 0 mm 2 m/s 708 mmHg 33%
    05:00 +35°C° 0 mm 2 m/s 708 mmHg 34%
    06:00 +34°C° 0 mm 3 m/s 708 mmHg 35%
    07:00 +35°C° 0 mm 3 m/s 709 mmHg 32%
    08:00 +37°C° 0 mm 4 m/s 709 mmHg 30%
    09:00 +38°C° 0 mm 4 m/s 710 mmHg 28%
    10:00 +40°C° 0 mm 4 m/s 710 mmHg 25%
    11:00 +41°C° 0 mm 4 m/s 710 mmHg 23%
    12:00 +42°C° 0 mm 5 m/s 710 mmHg 21%
    13:00 +42°C° 0 mm 4 m/s 710 mmHg 21%
    14:00 +42°C° 0 mm 4 m/s 709 mmHg 21%
    15:00 +42°C° 0 mm 4 m/s 708 mmHg 21%
    16:00 +42°C° 0 mm 4 m/s 708 mmHg 24%
    17:00 +41°C° 0 mm 5 m/s 708 mmHg 27%
    18:00 +40°C° 0 mm 5 m/s 708 mmHg 30%
    19:00 +39°C° 0 mm 5 m/s 709 mmHg 31%
    20:00 +37°C° 0 mm 4 m/s 709 mmHg 32%
    21:00 +36°C° 0 mm 3 m/s 709 mmHg 33%
    22:00 +36°C° 0 mm 3 m/s 710 mmHg 34%
    23:00 +36°C° 0 mm 3 m/s 710 mmHg 34%

    25 Juin, Lundi

    Heure Température Précipitation Vent Pression Humidité
    00:00 +35°C° 0 mm 2 m/s 710 mmHg 35%
    01:00 +35°C° 0 mm 2 m/s 710 mmHg 35%
    02:00 +34°C° 0 mm 1 m/s 709 mmHg 34%
    03:00 +34°C° 0 mm 1 m/s 709 mmHg 34%
    04:00 +34°C° 0 mm 1 m/s 710 mmHg 35%
    05:00 +33°C° 0 mm 1 m/s 710 mmHg 35%
    06:00 +33°C° 0 mm 1 m/s 710 mmHg 36%
    07:00 +35°C° 0 mm 2 m/s 711 mmHg 33%
    08:00 +36°C° 0 mm 3 m/s 711 mmHg 30%
    09:00 +37°C° 0 mm 5 m/s 712 mmHg 26%
    10:00 +38°C° 0 mm 4 m/s 712 mmHg 25%
    11:00 +40°C° 0 mm 4 m/s 711 mmHg 23%
    12:00 +40°C° 0 mm 4 m/s 711 mmHg 21%
    13:00 +41°C° 0 mm 4 m/s 710 mmHg 21%
    14:00 +41°C° 0 mm 4 m/s 710 mmHg 21%
    15:00 +42°C° 0 mm 4 m/s 709 mmHg 21%
    16:00 +41°C° 0 mm 4 m/s 709 mmHg 23%
    17:00 +40°C° 0 mm 4 m/s 709 mmHg 25%
    18:00 +40°C° 0 mm 4 m/s 709 mmHg 27%
    19:00 +38°C° 0 mm 4 m/s 709 mmHg 29%
    20:00 +37°C° 0 mm 3 m/s 710 mmHg 32%
    21:00 +36°C° 0 mm 3 m/s 710 mmHg 35%
    22:00 +36°C° 0 mm 3 m/s 710 mmHg 35%
    23:00 +35°C° 0 mm 2 m/s 710 mmHg 35%

    26 Juin, Mardi

    Heure Température Précipitation Vent Pression Humidité
    00:00 +35°C° 0 mm 2 m/s 711 mmHg 36%
    01:00 +35°C° 0 mm 2 m/s 710 mmHg 37%
    02:00 +34°C° 0 mm 2 m/s 710 mmHg 38%
    03:00 +34°C° 0 mm 2 m/s 709 mmHg 39%
    04:00 +33°C° 0 mm 1 m/s 710 mmHg 39%
    05:00 +32°C° 0 mm 1 m/s 710 mmHg 40%
    06:00 +32°C° 0 mm 1 m/s 711 mmHg 40%
    07:00 +33°C° 0 mm 1 m/s 711 mmHg 37%
    08:00 +35°C° 0 mm 2 m/s 712 mmHg 34%
    09:00 +36°C° 0 mm 2 m/s 712 mmHg 30%
    10:00 +38°C° 0 mm 3 m/s 712 mmHg 28%
    11:00 +39°C° 0 mm 3 m/s 711 mmHg 26%
    12:00 +41°C° 0 mm 4 m/s 711 mmHg 23%
    13:00 +40°C° 0 mm 3 m/s 710 mmHg 23%
    14:00 +40°C° 0 mm 3 m/s 709 mmHg 22%
    15:00 +42°C° 0 mm 3 m/s 709 mmHg 22%
    16:00 +40°C° 0 mm 3 m/s 709 mmHg 25%
    17:00 +39°C° 0 mm 3 m/s 709 mmHg 27%
    18:00 +38°C° 0 mm 4 m/s 708 mmHg 30%
    19:00 +38°C° 0 mm 3 m/s 709 mmHg 34%
    20:00 +37°C° 0 mm 3 m/s 709 mmHg 37%
    21:00 +36°C° 0 mm 3 m/s 710 mmHg 40%
    22:00 +36°C° 0 mm 2 m/s 710 mmHg 39%
    23:00 +36°C° 0 mm 2 m/s 710 mmHg 38%

    27 Juin, Mercredi

    Heure Température Précipitation Vent Pression Humidité
    00:00 +34°C° 0 mm 1 m/s 710 mmHg 37%
    01:00 +35°C° 0,1 mm 2 m/s 709 mmHg 37%
    02:00 +35°C° 0,1 mm 3 m/s 709 mmHg 37%
    03:00 +35°C° 0,1 mm 3 m/s 709 mmHg 37%
    04:00 +34°C° 0,1 mm 4 m/s 709 mmHg 37%
    05:00 +34°C° 0,1 mm 4 m/s 710 mmHg 37%
    06:00 +34°C° 0,1 mm 5 m/s 710 mmHg 37%
    07:00 +35°C° 0 mm 6 m/s 711 mmHg 35%
    08:00 +36°C° 0 mm 7 m/s 711 mmHg 33%
    09:00 +38°C° 0 mm 8 m/s 712 mmHg 30%
    10:00 +39°C° 0 mm 7 m/s 711 mmHg 28%
    11:00 +40°C° 0 mm 7 m/s 711 mmHg 25%
    12:00 +41°C° 0 mm 6 m/s 711 mmHg 22%
    13:00 +42°C° 0 mm 5 m/s 710 mmHg 21%
    14:00 +42°C° 0 mm 4 m/s 709 mmHg 20%
    15:00 +43°C° 0 mm 3 m/s 708 mmHg 19%
    16:00 +43°C° 0 mm 3 m/s 708 mmHg 19%
    17:00 +42°C° 0 mm 3 m/s 708 mmHg 20%
    18:00 +42°C° 0 mm 3 m/s 708 mmHg 20%
    19:00 +41°C° 0,1 mm 4 m/s 709 mmHg 22%
    20:00 +40°C° 0,1 mm 4 m/s 709 mmHg 24%
    21:00 +38°C° 0,1 mm 4 m/s 709 mmHg 27%
    22:00 +38°C° 0 mm 3 m/s 709 mmHg 28%
    23:00 +37°C° 0 mm 3 m/s 709 mmHg 29%
    Voir plus